This is the latest recevied weather packets stored in our database for station/object KC2WGU. If no packets are shown the sender has not sent any weather packets the latest 10 day(s).
| Time | Temp. | Humidity | Pressure | Rain* | Wind** | Luminosity | Snow |
|---|---|---|---|---|---|---|---|
| 1788400220 | 18.33° C | 96% | 1015.2 hPa | 0 mm | - | 0 W/m² | - |
| 1788381022 | 19.44° C | 96% | 1016.1 hPa | 0.25 mm | - | 150 W/m² | - |
| 1788379222 | 19.44° C | 97% | 1016.2 hPa | 0.25 mm | - | 131 W/m² | - |
| 1788377422 | 19.44° C | 97% | 1016.6 hPa | 0 mm | - | 129 W/m² | - |
| 1788376821 | 19.44° C | 98% | 1016.5 hPa | 0 mm | - | 265 W/m² | - |
| 1788376221 | 19.44° C | 98% | 1016.6 hPa | 0 mm | - | 196 W/m² | - |
| 1788375624 | 19.44° C | 98% | 1015.7 hPa | 0 mm | - | 361 W/m² | - |
| 1788361222 | 17.22° C | 99% | 1018 hPa | 0 mm | - | 66 W/m² | - |
| 1788360622 | 17.22° C | 99% | 1017.4 hPa | 0 mm | - | 57 W/m² | - |
| 1788358819 | 17.22° C | 99% | 1017.9 hPa | 0 mm | - | 329 W/m² | - |
| 1788358221 | 17.22° C | 99% | 1017.8 hPa | 0 mm | - | 329 W/m² | - |
| 1788357022 | 17.22° C | 99% | 1017.8 hPa | 0 mm | - | 329 W/m² | - |
| 1788356420 | 17.22° C | 99% | 1017.6 hPa | 0 mm | - | 329 W/m² | - |
| 1788355821 | 17.22° C | 99% | 1017.7 hPa | 0 mm | - | 329 W/m² | - |
| 1788355219 | 17.22° C | 99% | 1017.7 hPa | 0 mm | - | 329 W/m² | - |
| 1788353420 | 17.22° C | 99% | 1017.8 hPa | 0 mm | - | 329 W/m² | - |
| 1788352819 | 17.22° C | 99% | 1017.6 hPa | 0 mm | - | 329 W/m² | - |
| 1788352220 | 17.22° C | 99% | 1017.7 hPa | 0 mm | - | 329 W/m² | - |
| 1788351620 | 16.67° C | 99% | 1017.5 hPa | 0 mm | - | 329 W/m² | - |
| 1788351019 | 16.67° C | 99% | 1017.4 hPa | 0 mm | - | 329 W/m² | - |
| 1788350421 | 16.67° C | 99% | 1017.4 hPa | 0 mm | - | 329 W/m² | - |
| 1788349821 | 16.67° C | 99% | 1017.3 hPa | 0 mm | - | 329 W/m² | - |
| 1788349220 | 16.67° C | 99% | 1017.2 hPa | 0 mm | - | 329 W/m² | - |
| 1788348621 | 16.67° C | 99% | 1017.1 hPa | 0 mm | - | 329 W/m² | - |
| 1788348022 | 16.67° C | 99% | 1017.2 hPa | 0 mm | - | 329 W/m² | - |
* Rain latest hour (hover to see other rain measurements)
** Current wind speed in m/s (hover to see current wind gust speed)